Time,TemperatureF,DewpointF,PressureIn,WindDirection,WindDirectionDegrees,WindSpeedMPH,WindSpeedGustMPH,Humidity,HourlyPrecipIn,Conditions,Clouds,dailyrainin,SoftwareType,DateUTC
2013-02-16 00:00:00,46.8,43.7,29.96,WNW,285,5.0,6.0,89,0.00,,---,0.00,VWS V14.01,2013-02-16 05:00:00,
2013-02-16 00:01:00,46.9,43.8,29.96,WNW,286,5.0,6.0,89,0.00,,---,0.00,VWS V14.01,2013-02-16 05:01:00,
2013-02-16 00:06:00,46.9,43.8,29.95,West,277,5.0,6.0,89,0.00,,---,0.00,VWS V14.01,2013-02-16 05:06:00,
2013-02-16 00:11:00,46.9,43.8,29.95,West,275,4.0,6.0,89,0.00,,---,0.00,VWS V14.01,2013-02-16 05:11:00,
2013-02-16 00:16:00,47.0,44.2,29.95,West,267,3.0,6.0,90,0.00,,---,0.00,VWS V14.01,2013-02-16 05:16:00,
2013-02-16 00:21:00,46.8,43.7,29.95,West,263,3.0,6.0,89,0.00,,---,0.00,VWS V14.01,2013-02-16 05:21:00,
2013-02-16 00:23:00,46.8,43.7,29.95,West,267,4.0,6.0,89,0.00,,---,0.00,VWS V14.01,2013-02-16 05:23:00,
2013-02-16 00:28:00,46.6,43.5,29.95,West,264,3.0,4.0,89,0.00,,---,0.00,VWS V14.01,2013-02-16 05:28:00,
2013-02-16 00:33:00,46.9,44.1,29.95,West,269,2.0,4.0,90,0.00,,---,0.00,VWS V14.01,2013-02-16 05:33:00,
2013-02-16 00:38:00,46.9,44.1,29.95,West,275,3.0,5.0,90,0.00,,---,0.00,VWS V14.01,2013-02-16 05:38:00,
2013-02-16 00:43:00,46.9,44.1,29.95,West,275,3.0,5.0,90,0.00,,---,0.00,VWS V14.01,2013-02-16 05:43:00,
2013-02-16 00:48:00,46.8,44.0,29.95,West,275,1.0,5.0,90,0.00,,---,0.00,VWS V14.01,2013-02-16 05:48:00,
2013-02-16 00:53:00,46.6,43.8,29.95,West,275,4.0,5.0,90,0.00,,---,0.00,VWS V14.01,2013-02-16 05:53:00,
2013-02-16 00:58:00,46.4,43.6,29.94,West,275,4.0,4.0,90,0.00,,---,0.00,VWS V14.01,2013-02-16 05:58:00,
2013-02-16 01:03:00,46.4,43.6,29.94,West,267,0.0,4.0,90,0.00,,---,0.00,VWS V14.01,2013-02-16 06:03:00,
2013-02-16 01:08:00,46.5,43.7,29.94,WSW,258,2.0,4.0,90,0.00,,---,0.00,VWS V14.01,2013-02-16 06:08:00,
2013-02-16 01:13:00,46.3,43.5,29.94,West,267,4.0,5.0,90,0.00,,---,0.00,VWS V14.01,2013-02-16 06:13:00,
2013-02-16 01:18:00,46.3,43.5,29.94,West,265,4.0,5.0,90,0.00,,---,0.00,VWS V14.01,2013-02-16 06:18:00,
2013-02-16 01:23:00,46.5,44.0,29.94,West,278,4.0,5.0,91,0.00,,---,0.00,VWS V14.01,2013-02-16 06:23:00,
2013-02-16 01:28:00,46.4,43.6,29.93,West,278,3.0,3.0,90,0.00,,---,0.00,VWS V14.01,2013-02-16 06:28:00,
2013-02-16 01:33:00,46.2,43.7,29.93,West,278,2.0,3.0,91,0.00,,---,0.00,VWS V14.01,2013-02-16 06:33:00,
2013-02-16 01:38:00,46.2,43.7,29.93,West,279,2.0,3.0,91,0.00,,---,0.00,VWS V14.01,2013-02-16 06:38:00,
2013-02-16 01:43:00,46.1,43.6,29.93,West,278,0.0,3.0,91,0.00,,---,0.00,VWS V14.01,2013-02-16 06:43:00,
2013-02-16 01:48:00,46.1,43.6,29.93,SW,230,2.0,6.0,91,0.00,,---,0.00,VWS V14.01,2013-02-16 06:48:00,
2013-02-16 01:53:00,46.4,44.2,29.93,West,261,2.0,6.0,92,0.00,,---,0.00,VWS V14.01,2013-02-16 06:53:00,
2013-02-16 01:58:00,46.5,44.3,29.92,West,261,2.0,2.0,92,0.00,,---,0.00,VWS V14.01,2013-02-16 06:58:00,
2013-02-16 02:03:00,46.5,44.0,29.92,West,265,3.0,4.0,91,0.00,,---,0.00,VWS V14.01,2013-02-16 07:03:00,
2013-02-16 02:08:00,46.5,44.3,29.92,West,265,3.0,4.0,92,0.00,,---,0.00,VWS V14.01,2013-02-16 07:08:00,
2013-02-16 02:13:00,46.3,44.1,29.93,West,277,2.0,4.0,92,0.00,,---,0.00,VWS V14.01,2013-02-16 07:13:00,
2013-02-16 02:18:00,46.2,44.0,29.92,West,277,2.0,4.0,92,0.00,,---,0.00,VWS V14.01,2013-02-16 07:18:00,
2013-02-16 02:23:00,46.3,44.1,29.92,West,277,2.0,4.0,92,0.00,,---,0.00,VWS V14.01,2013-02-16 07:23:00,
2013-02-16 02:28:00,46.3,44.1,29.92,West,263,0.0,1.0,92,0.00,,---,0.00,VWS V14.01,2013-02-16 07:28:00,
2013-02-16 02:33:00,46.3,44.1,29.92,WNW,283,3.0,6.0,92,0.00,,---,0.00,VWS V14.01,2013-02-16 07:33:00,
2013-02-16 02:38:00,46.4,44.2,29.92,West,280,2.0,6.0,92,0.00,,---,0.00,VWS V14.01,2013-02-16 07:38:00,
2013-02-16 02:43:00,46.2,44.0,29.92,West,278,1.0,6.0,92,0.00,,---,0.00,VWS V14.01,2013-02-16 07:43:00,
2013-02-16 02:48:00,46.0,43.8,29.92,West,278,0.0,6.0,92,0.00,,---,0.00,VWS V14.01,2013-02-16 07:48:00,
2013-02-16 02:53:00,45.9,43.7,29.92,West,278,0.0,6.0,92,0.00,,---,0.00,VWS V14.01,2013-02-16 07:53:00,
2013-02-16 02:59:00,45.8,43.6,29.92,West,278,0.0,1.0,92,0.00,,---,0.00,VWS V14.01,2013-02-16 07:59:00,
2013-02-16 03:04:00,45.7,43.5,29.92,West,278,0.0,2.0,92,0.00,,---,0.00,VWS V14.01,2013-02-16 08:04:00,
2013-02-16 03:09:00,45.6,43.4,29.91,WSW,242,2.0,4.0,92,0.00,,---,0.00,VWS V14.01,2013-02-16 08:09:00,
2013-02-16 03:14:00,45.4,43.2,29.92,WSW,246,3.0,5.0,92,0.00,,---,0.00,VWS V14.01,2013-02-16 08:14:00,
2013-02-16 03:19:00,45.4,43.2,29.91,West,261,2.0,6.0,92,0.00,,---,0.00,VWS V14.01,2013-02-16 08:19:00,
2013-02-16 03:24:00,45.5,43.3,29.92,WSW,244,4.0,6.0,92,0.00,,---,0.00,VWS V14.01,2013-02-16 08:24:00,
2013-02-16 03:29:00,45.6,43.4,29.91,West,267,3.0,4.0,92,0.00,,---,0.00,VWS V14.01,2013-02-16 08:29:00,
2013-02-16 03:34:00,45.9,43.7,29.91,WSW,239,2.0,4.0,92,0.00,,---,0.00,VWS V14.01,2013-02-16 08:34:00,
2013-02-16 03:39:00,46.3,44.1,29.91,West,274,3.0,5.0,92,0.00,,---,0.00,VWS V14.01,2013-02-16 08:39:00,
2013-02-16 03:44:00,46.5,44.3,29.91,West,275,3.0,5.0,92,0.00,,---,0.00,VWS V14.01,2013-02-16 08:44:00,
2013-02-16 03:49:00,46.6,44.4,29.91,WNW,286,5.0,6.0,92,0.00,,---,0.00,VWS V14.01,2013-02-16 08:49:00,
2013-02-16 03:54:00,46.4,44.2,29.90,WNW,288,5.0,6.0,92,0.00,,---,0.00,VWS V14.01,2013-02-16 08:54:00,
2013-02-16 03:59:00,46.2,44.0,29.91,NNW,331,9.0,10.0,92,0.00,,---,0.00,VWS V14.01,2013-02-16 08:59:00,
2013-02-16 04:04:00,44.7,42.2,29.91,North,349,16.0,22.0,91,0.00,,---,0.00,VWS V14.01,2013-02-16 09:04:00,
2013-02-16 04:09:00,43.9,41.7,29.92,NW,322,13.0,22.0,92,0.00,,---,0.00,VWS V14.01,2013-02-16 09:09:00,
2013-02-16 04:14:00,43.7,41.5,29.92,NW,324,12.0,22.0,92,0.00,,---,0.00,VWS V14.01,2013-02-16 09:14:00,
2013-02-16 04:19:00,43.7,41.5,29.91,NNW,347,11.0,22.0,92,0.00,,---,0.00,VWS V14.01,2013-02-16 09:19:00,
2013-02-16 04:24:00,43.7,41.5,29.91,North,355,11.0,22.0,92,0.00,,---,0.00,VWS V14.01,2013-02-16 09:24:00,
2013-02-16 04:29:00,43.5,41.0,29.90,NNW,342,10.0,11.0,91,0.00,,---,0.00,VWS V14.01,2013-02-16 09:29:00,
2013-02-16 04:34:00,43.5,41.0,29.90,North,350,8.0,14.0,91,0.00,,---,0.00,VWS V14.01,2013-02-16 09:34:00,
2013-02-16 04:39:00,43.5,41.0,29.90,North,355,10.0,14.0,91,0.00,,---,0.00,VWS V14.01,2013-02-16 09:39:00,
2013-02-16 04:44:00,43.4,41.0,29.90,NNW,347,6.0,14.0,91,0.00,,---,0.00,VWS V14.01,2013-02-16 09:44:00,
2013-02-16 04:49:00,43.6,41.2,29.90,NNW,345,6.0,14.0,91,0.00,,---,0.00,VWS V14.01,2013-02-16 09:49:00,
2013-02-16 04:54:00,43.5,40.8,29.90,North,355,6.0,14.0,90,0.00,,---,0.00,VWS V14.01,2013-02-16 09:54:00,
2013-02-16 04:59:00,43.6,40.9,29.89,North,351,6.0,9.0,90,0.00,,---,0.00,VWS V14.01,2013-02-16 09:59:00,
2013-02-16 05:04:00,43.6,40.9,29.88,NNW,344,5.0,9.0,90,0.00,,---,0.00,VWS V14.01,2013-02-16 10:04:00,
2013-02-16 05:09:00,43.5,40.5,29.88,NNW,344,5.0,9.0,89,0.00,,---,0.00,VWS V14.01,2013-02-16 10:09:00,
2013-02-16 05:15:00,43.5,40.5,29.88,North,355,3.0,9.0,89,0.00,,---,0.00,VWS V14.01,2013-02-16 10:15:00,
2013-02-16 05:20:00,43.5,40.5,29.88,North,355,5.0,9.0,89,0.00,,---,0.00,VWS V14.01,2013-02-16 10:20:00,
2013-02-16 05:25:00,43.5,40.5,29.88,North,360,2.0,9.0,89,0.00,,---,0.00,VWS V14.01,2013-02-16 10:25:00,
2013-02-16 05:30:00,43.3,40.3,29.88,NNE,22,3.0,3.0,89,0.00,,---,0.00,VWS V14.01,2013-02-16 10:30:00,
2013-02-16 05:35:00,43.2,40.2,29.88,NNE,14,2.0,7.0,89,0.00,,---,0.00,VWS V14.01,2013-02-16 10:35:00,
2013-02-16 05:40:00,43.1,40.1,29.88,NNE,14,3.0,7.0,89,0.00,,---,0.00,VWS V14.01,2013-02-16 10:40:00,
2013-02-16 05:45:00,43.2,40.2,29.88,NNE,24,4.0,7.0,89,0.00,,---,0.00,VWS V14.01,2013-02-16 10:45:00,
2013-02-16 05:50:00,43.1,40.1,29.87,NNE,16,4.0,7.0,89,0.00,,---,0.00,VWS V14.01,2013-02-16 10:50:00,
2013-02-16 05:55:00,43.1,40.1,29.88,North,360,6.0,9.0,89,0.00,,---,0.00,VWS V14.01,2013-02-16 10:55:00,
2013-02-16 06:00:00,42.9,39.9,29.87,North,5,5.0,6.0,89,0.00,,---,0.00,VWS V14.01,2013-02-16 11:00:00,
2013-02-16 06:05:00,42.9,39.9,29.88,North,355,9.0,10.0,89,0.00,,---,0.00,VWS V14.01,2013-02-16 11:05:00,
2013-02-16 06:10:00,42.9,39.9,29.88,North,5,5.0,10.0,89,0.00,,---,0.00,VWS V14.01,2013-02-16 11:10:00,
2013-02-16 06:15:00,42.7,39.7,29.88,North,351,6.0,10.0,89,0.00,,---,0.00,VWS V14.01,2013-02-16 11:15:00,
2013-02-16 06:20:00,42.5,39.5,29.88,North,350,6.0,10.0,89,0.00,,---,0.00,VWS V14.01,2013-02-16 11:20:00,
2013-02-16 06:25:00,42.3,39.3,29.88,North,360,5.0,10.0,89,0.00,,---,0.00,VWS V14.01,2013-02-16 11:25:00,
2013-02-16 06:30:00,42.0,39.0,29.88,NNE,15,5.0,6.0,89,0.00,,---,0.00,VWS V14.01,2013-02-16 11:30:00,
2013-02-16 06:35:00,42.0,39.0,29.87,NNE,25,6.0,9.0,89,0.00,,---,0.00,VWS V14.01,2013-02-16 11:35:00,
2013-02-16 06:40:00,42.1,39.4,29.87,NNE,24,3.0,9.0,90,0.00,,---,0.00,VWS V14.01,2013-02-16 11:40:00,
2013-02-16 06:45:00,42.0,39.3,29.87,NNE,14,4.0,9.0,90,0.00,,---,0.00,VWS V14.01,2013-02-16 11:45:00,
2013-02-16 06:50:00,42.2,39.8,29.88,NE,41,4.0,9.0,91,0.00,,---,0.00,VWS V14.01,2013-02-16 11:50:00,
2013-02-16 06:55:00,42.0,39.3,29.87,NE,49,5.0,9.0,90,0.00,,---,0.00,VWS V14.01,2013-02-16 11:55:00,
2013-02-16 07:00:00,41.8,39.1,29.87,NNE,28,5.0,7.0,90,0.00,,---,0.00,VWS V14.01,2013-02-16 12:00:00,
2013-02-16 07:05:00,41.9,39.2,29.87,NE,34,7.0,9.0,90,0.00,,---,0.00,VWS V14.01,2013-02-16 12:05:00,
2013-02-16 07:10:00,41.8,39.1,29.88,NE,38,6.0,9.0,90,0.00,,---,0.00,VWS V14.01,2013-02-16 12:10:00,
2013-02-16 07:15:00,41.8,39.1,29.88,NNE,21,5.0,9.0,90,0.00,,---,0.00,VWS V14.01,2013-02-16 12:15:00,
2013-02-16 07:20:00,41.8,39.1,29.88,ENE,60,3.0,9.0,90,0.00,,---,0.00,VWS V14.01,2013-02-16 12:20:00,
2013-02-16 07:25:00,41.6,38.9,29.88,NE,46,4.0,9.0,90,0.00,,---,0.00,VWS V14.01,2013-02-16 12:25:00,
2013-02-16 07:30:00,41.8,39.4,29.87,NE,40,5.0,8.0,91,0.00,,---,0.00,VWS V14.01,2013-02-16 12:30:00,
2013-02-16 07:35:00,41.9,39.2,29.88,NE,46,6.0,10.0,90,0.00,,---,0.00,VWS V14.01,2013-02-16 12:35:00,
2013-02-16 07:40:00,41.9,39.5,29.88,NE,38,9.0,10.0,91,0.00,,---,0.00,VWS V14.01,2013-02-16 12:40:00,
2013-02-16 07:45:00,41.7,39.0,29.88,NE,55,5.0,10.0,90,0.00,,---,0.00,VWS V14.01,2013-02-16 12:45:00,
2013-02-16 07:50:00,41.6,38.9,29.88,ENE,59,4.0,10.0,90,0.00,,---,0.00,VWS V14.01,2013-02-16 12:50:00,
2013-02-16 07:55:00,41.8,39.1,29.88,ENE,59,7.0,10.0,90,0.00,,---,0.00,VWS V14.01,2013-02-16 12:55:00,
2013-02-16 08:00:00,41.9,39.2,29.88,NE,42,8.0,11.0,90,0.00,,---,0.00,VWS V14.01,2013-02-16 13:00:00,
2013-02-16 08:05:00,42.0,39.3,29.87,ENE,62,7.0,11.0,90,0.00,,---,0.00,VWS V14.01,2013-02-16 13:05:00,
2013-02-16 08:11:00,42.2,39.5,29.87,ENE,69,9.0,11.0,90,0.00,,---,0.00,VWS V14.01,2013-02-16 13:11:00,
2013-02-16 08:16:00,42.4,39.7,29.87,NE,53,10.0,11.0,90,0.00,,---,0.00,VWS V14.01,2013-02-16 13:16:00,
2013-02-16 08:21:00,42.6,39.9,29.87,NE,55,7.0,11.0,90,0.00,,---,0.00,VWS V14.01,2013-02-16 13:21:00,
2013-02-16 08:26:00,42.9,40.2,29.87,ENE,63,9.0,11.0,90,0.00,,---,0.00,VWS V14.01,2013-02-16 13:26:00,
2013-02-16 08:31:00,42.9,39.9,29.87,NE,46,10.0,12.0,89,0.00,,---,0.00,VWS V14.01,2013-02-16 13:31:00,
2013-02-16 08:36:00,43.1,40.4,29.87,NNE,32,14.0,14.0,90,0.00,,---,0.00,VWS V14.01,2013-02-16 13:36:00,
2013-02-16 08:41:00,42.9,39.9,29.87,NNE,21,13.0,14.0,89,0.00,,---,0.00,VWS V14.01,2013-02-16 13:41:00,
2013-02-16 08:46:00,42.8,39.8,29.87,NNE,23,12.0,14.0,89,0.00,,---,0.00,VWS V14.01,2013-02-16 13:46:00,
2013-02-16 08:51:00,42.9,39.9,29.86,NE,39,10.0,14.0,89,0.00,,---,0.00,VWS V14.01,2013-02-16 13:51:00,
2013-02-16 08:56:00,42.8,39.5,29.86,NNE,21,9.0,15.0,88,0.00,,---,0.00,VWS V14.01,2013-02-16 13:56:00,
2013-02-16 09:01:00,42.9,39.9,29.86,NE,38,11.0,15.0,89,0.00,,---,0.00,VWS V14.01,2013-02-16 14:01:00,
2013-02-16 09:06:00,42.9,39.9,29.86,NE,34,10.0,15.0,89,0.00,,---,0.00,VWS V14.01,2013-02-16 14:06:00,
2013-02-16 09:11:00,42.8,39.8,29.86,NE,51,9.0,15.0,89,0.00,,---,0.00,VWS V14.01,2013-02-16 14:11:00,
2013-02-16 09:16:00,43.0,40.0,29.86,NE,55,9.0,15.0,89,0.00,,---,0.00,VWS V14.01,2013-02-16 14:16:00,
2013-02-16 09:21:00,43.3,40.3,29.86,ENE,77,6.0,15.0,89,0.00,,---,0.00,VWS V14.01,2013-02-16 14:21:00,
2013-02-16 09:26:00,43.6,40.6,29.86,ENE,71,9.0,15.0,89,0.00,,---,0.00,VWS V14.01,2013-02-16 14:26:00,
2013-02-16 09:31:00,43.5,40.5,29.86,NE,55,4.0,11.0,89,0.00,,---,0.00,VWS V14.01,2013-02-16 14:31:00,
2013-02-16 09:36:00,43.6,40.3,29.86,NNE,22,6.0,11.0,88,0.00,,---,0.00,VWS V14.01,2013-02-16 14:36:00,
2013-02-16 09:41:00,44.0,41.0,29.87,NE,56,4.0,11.0,89,0.00,,---,0.00,VWS V14.01,2013-02-16 14:41:00,
2013-02-16 09:46:00,44.1,40.8,29.86,NE,37,5.0,11.0,88,0.00,,---,0.00,VWS V14.01,2013-02-16 14:46:00,
2013-02-16 09:51:00,44.3,41.0,29.86,East,83,5.0,11.0,88,0.00,,---,0.00,VWS V14.01,2013-02-16 14:51:00,
2013-02-16 09:56:00,44.6,41.3,29.86,NE,44,9.0,11.0,88,0.00,,---,0.00,VWS V14.01,2013-02-16 14:56:00,
2013-02-16 10:01:00,44.7,40.8,29.86,NE,46,6.0,8.0,86,0.00,,---,0.00,VWS V14.01,2013-02-16 15:01:00,
2013-02-16 10:06:00,44.9,41.0,29.85,ENE,73,5.0,11.0,86,0.00,,---,0.00,VWS V14.01,2013-02-16 15:06:00,
2013-02-16 10:11:00,45.3,41.4,29.85,NE,44,5.0,11.0,86,0.00,,---,0.00,VWS V14.01,2013-02-16 15:11:00,
2013-02-16 10:16:00,45.6,41.7,29.85,NNE,18,6.0,11.0,86,0.00,,---,0.00,VWS V14.01,2013-02-16 15:16:00,
2013-02-16 10:21:00,45.7,41.5,29.85,ENE,58,3.0,11.0,85,0.00,,---,0.00,VWS V14.01,2013-02-16 15:21:00,
2013-02-16 10:26:00,45.9,41.7,29.85,ENE,65,5.0,11.0,85,0.00,,---,0.00,VWS V14.01,2013-02-16 15:26:00,
2013-02-16 10:31:00,46.0,41.4,29.85,NE,51,3.0,8.0,84,0.00,,---,0.00,VWS V14.01,2013-02-16 15:31:00,
2013-02-16 10:36:00,46.1,41.5,29.85,NE,51,10.0,10.0,84,0.00,,---,0.00,VWS V14.01,2013-02-16 15:36:00,
2013-02-16 10:41:00,46.3,41.7,29.85,ENE,63,5.0,10.0,84,0.00,,---,0.00,VWS V14.01,2013-02-16 15:41:00,
2013-02-16 10:46:00,46.6,41.7,29.84,East,86,5.0,10.0,83,0.00,,---,0.00,VWS V14.01,2013-02-16 15:46:00,
2013-02-16 10:52:00,47.0,42.1,29.84,East,82,6.0,10.0,83,0.00,,---,0.00,VWS V14.01,2013-02-16 15:52:00,
2013-02-16 10:57:00,47.3,42.1,29.84,NE,51,5.0,10.0,82,0.00,,---,0.00,VWS V14.01,2013-02-16 15:57:00,
2013-02-16 11:02:00,47.7,42.5,29.84,ESE,112,6.0,8.0,82,0.00,,---,0.00,VWS V14.01,2013-02-16 16:02:00,
2013-02-16 11:07:00,48.3,42.8,29.84,ESE,119,4.0,8.0,81,0.00,,---,0.00,VWS V14.01,2013-02-16 16:07:00,
2013-02-16 11:12:00,48.8,43.2,29.84,ESE,108,5.0,9.0,81,0.00,,---,0.00,VWS V14.01,2013-02-16 16:12:00,
2013-02-16 11:17:00,49.1,43.2,29.84,SE,128,1.0,9.0,80,0.00,,---,0.00,VWS V14.01,2013-02-16 16:17:00,
2013-02-16 11:22:00,49.4,43.5,29.84,SE,126,10.0,12.0,80,0.00,,---,0.00,VWS V14.01,2013-02-16 16:22:00,
2013-02-16 11:27:00,49.6,43.4,29.84,SE,127,5.0,13.0,79,0.00,,---,0.00,VWS V14.01,2013-02-16 16:27:00,
2013-02-16 11:32:00,49.6,43.4,29.84,ESE,111,6.0,10.0,79,0.00,,---,0.00,VWS V14.01,2013-02-16 16:32:00,
2013-02-16 11:37:00,49.7,43.1,29.83,SE,126,3.0,10.0,78,0.00,,---,0.00,VWS V14.01,2013-02-16 16:37:00,
2013-02-16 11:42:00,49.6,43.0,29.83,SE,125,4.0,10.0,78,0.00,,---,0.00,VWS V14.01,2013-02-16 16:42:00,
2013-02-16 11:47:00,49.7,43.5,29.83,ESE,123,5.0,11.0,79,0.00,,---,0.00,VWS V14.01,2013-02-16 16:47:00,
2013-02-16 11:52:00,49.8,43.6,29.82,ESE,102,4.0,11.0,79,0.00,,---,0.00,VWS V14.01,2013-02-16 16:52:00,
2013-02-16 11:57:00,49.8,43.6,29.82,ESE,121,5.0,11.0,79,0.00,,---,0.00,VWS V14.01,2013-02-16 16:57:00,
2013-02-16 12:02:00,49.7,43.5,29.82,ESE,107,7.0,10.0,79,0.00,,---,0.00,VWS V14.01,2013-02-16 17:02:00,
2013-02-16 12:07:00,49.8,43.2,29.82,East,100,6.0,12.0,78,0.00,,---,0.00,VWS V14.01,2013-02-16 17:07:00,
2013-02-16 12:12:00,49.6,43.0,29.81,ESE,115,7.0,12.0,78,0.00,,---,0.00,VWS V14.01,2013-02-16 17:12:00,
2013-02-16 12:17:00,49.6,43.4,29.81,ENE,77,4.0,12.0,79,0.00,,---,0.00,VWS V14.01,2013-02-16 17:17:00,
2013-02-16 12:22:00,49.6,43.4,29.81,SE,134,6.0,12.0,79,0.00,,---,0.00,VWS V14.01,2013-02-16 17:22:00,
2013-02-16 12:27:00,49.7,43.5,29.80,ESE,110,6.0,12.0,79,0.00,,---,0.00,VWS V14.01,2013-02-16 17:27:00,
2013-02-16 12:32:00,49.7,43.5,29.80,East,92,5.0,13.0,79,0.00,,---,0.00,VWS V14.01,2013-02-16 17:32:00,
2013-02-16 12:37:00,49.7,43.5,29.79,ESE,113,11.0,13.0,79,0.00,,---,0.00,VWS V14.01,2013-02-16 17:37:00,
2013-02-16 12:42:00,49.6,43.4,29.79,NNW,344,7.0,13.0,79,0.00,,---,0.00,VWS V14.01,2013-02-16 17:42:00,
2013-02-16 12:47:00,49.1,43.2,29.78,NNE,28,7.0,13.0,80,0.00,,---,0.00,VWS V14.01,2013-02-16 17:47:00,
2013-02-16 12:52:00,48.9,42.7,29.78,NNE,28,10.0,13.0,79,0.00,,---,0.00,VWS V14.01,2013-02-16 17:52:00,
2013-02-16 12:57:00,48.6,42.4,29.78,NNE,30,13.0,13.0,79,0.00,,---,0.00,VWS V14.01,2013-02-16 17:57:00,
2013-02-16 13:02:00,48.7,42.5,29.77,NE,53,10.0,12.0,79,0.00,,---,0.00,VWS V14.01,2013-02-16 18:02:00,
2013-02-16 13:07:00,48.6,42.4,29.77,NNE,23,7.0,12.0,79,0.00,,---,0.00,VWS V14.01,2013-02-16 18:07:00,
2013-02-16 13:12:00,48.8,42.6,29.77,NNE,27,10.0,13.0,79,0.00,,---,0.00,VWS V14.01,2013-02-16 18:12:00,
2013-02-16 13:17:00,48.8,42.6,29.76,NE,46,6.0,13.0,79,0.00,,---,0.00,VWS V14.01,2013-02-16 18:17:00,
2013-02-16 13:22:00,48.8,42.6,29.76,NE,39,7.0,13.0,79,0.00,,---,0.00,VWS V14.01,2013-02-16 18:22:00,
2013-02-16 13:27:00,48.9,42.7,29.75,ENE,65,9.0,13.0,79,0.00,,---,0.00,VWS V14.01,2013-02-16 18:27:00,
2013-02-16 13:32:00,48.9,42.7,29.75,East,83,5.0,11.0,79,0.00,,---,0.00,VWS V14.01,2013-02-16 18:32:00,
2013-02-16 13:37:00,48.8,42.6,29.75,ENE,62,4.0,11.0,79,0.00,,---,0.00,VWS V14.01,2013-02-16 18:37:00,
2013-02-16 13:42:00,48.8,42.6,29.75,NE,48,5.0,11.0,79,0.00,,---,0.00,VWS V14.01,2013-02-16 18:42:00,
2013-02-16 13:47:00,48.9,42.7,29.74,ENE,57,5.0,11.0,79,0.00,,---,0.00,VWS V14.01,2013-02-16 18:47:00,
2013-02-16 13:52:00,49.0,42.8,29.74,East,87,5.0,11.0,79,0.00,,---,0.00,VWS V14.01,2013-02-16 18:52:00,
2013-02-16 13:57:00,49.1,42.5,29.73,NE,55,6.0,11.0,78,0.00,,---,0.00,VWS V14.01,2013-02-16 18:57:00,
2013-02-16 14:02:00,49.1,42.9,29.73,NE,38,10.0,12.0,79,0.00,,---,0.00,VWS V14.01,2013-02-16 19:02:00,
2013-02-16 14:07:00,49.0,42.8,29.72,ENE,68,7.0,12.0,79,0.00,,---,0.00,VWS V14.01,2013-02-16 19:07:00,
2013-02-16 14:12:00,49.0,42.8,29.73,North,355,10.0,13.0,79,0.00,,---,0.00,VWS V14.01,2013-02-16 19:12:00,
2013-02-16 14:17:00,49.0,42.5,29.72,North,360,10.0,13.0,78,0.00,,---,0.00,VWS V14.01,2013-02-16 19:17:00,
2013-02-16 14:23:00,49.1,42.5,29.72,North,360,10.0,13.0,78,0.00,,---,0.00,VWS V14.01,2013-02-16 19:23:00,
2013-02-16 14:28:00,49.0,42.5,29.72,NNE,24,10.0,13.0,78,0.00,,---,0.00,VWS V14.01,2013-02-16 19:28:00,
2013-02-16 14:33:00,49.1,42.5,29.72,North,360,11.0,14.0,78,0.00,,---,0.00,VWS V14.01,2013-02-16 19:33:00,
2013-02-16 14:38:00,49.0,42.5,29.72,NNW,332,11.0,14.0,78,0.00,,---,0.00,VWS V14.01,2013-02-16 19:38:00,
2013-02-16 14:43:00,49.1,42.5,29.72,NNW,347,9.0,15.0,78,0.00,,---,0.00,VWS V14.01,2013-02-16 19:43:00,
2013-02-16 14:48:00,49.2,42.6,29.71,North,5,7.0,15.0,78,0.00,,---,0.00,VWS V14.01,2013-02-16 19:48:00,
2013-02-16 14:53:00,49.2,42.6,29.71,NNW,344,7.0,15.0,78,0.00,,---,0.00,VWS V14.01,2013-02-16 19:53:00,
2013-02-16 14:58:00,49.4,42.8,29.71,North,355,6.0,6.0,78,0.00,,---,0.00,VWS V14.01,2013-02-16 19:58:00,
2013-02-16 15:03:00,49.5,42.9,29.71,North,355,10.0,12.0,78,0.00,,---,0.00,VWS V14.01,2013-02-16 20:03:00,
2013-02-16 15:08:00,49.5,42.9,29.71,North,350,16.0,19.0,78,0.00,,---,0.00,VWS V14.01,2013-02-16 20:08:00,
2013-02-16 15:13:00,49.0,42.1,29.71,North,360,14.0,19.0,77,0.00,,---,0.00,VWS V14.01,2013-02-16 20:13:00,
2013-02-16 15:18:00,48.5,41.6,29.71,North,355,16.0,20.0,77,0.00,,---,0.00,VWS V14.01,2013-02-16 20:18:00,
2013-02-16 15:23:00,48.2,41.0,29.70,North,9,15.0,20.0,76,0.00,,---,0.00,VWS V14.01,2013-02-16 20:23:00,
2013-02-16 15:28:00,48.1,41.2,29.70,North,5,16.0,20.0,77,0.00,,---,0.00,VWS V14.01,2013-02-16 20:28:00,
2013-02-16 15:33:00,48.1,41.2,29.70,North,5,16.0,20.0,77,0.00,,---,0.00,VWS V14.01,2013-02-16 20:33:00,
2013-02-16 15:38:00,47.9,41.0,29.70,North,350,14.0,21.0,77,0.00,,---,0.00,VWS V14.01,2013-02-16 20:38:00,
2013-02-16 15:43:00,47.7,40.5,29.71,North,351,16.0,21.0,76,0.00,,---,0.00,VWS V14.01,2013-02-16 20:43:00,
2013-02-16 15:48:00,47.6,40.4,29.72,North,350,15.0,21.0,76,0.00,,---,0.00,VWS V14.01,2013-02-16 20:48:00,
2013-02-16 15:53:00,47.4,40.2,29.72,North,350,15.0,28.0,76,0.00,,---,0.00,VWS V14.01,2013-02-16 20:53:00,
2013-02-16 15:58:00,47.1,40.3,29.73,NNW,335,19.0,21.0,77,0.01,,---,0.01,VWS V14.01,2013-02-16 20:58:00,
2013-02-16 16:03:00,46.0,39.9,29.72,North,350,25.0,33.0,79,0.01,,---,0.01,VWS V14.01,2013-02-16 21:03:00,
2013-02-16 16:08:00,43.8,39.0,29.73,North,355,26.0,36.0,83,0.02,,---,0.02,VWS V14.01,2013-02-16 21:08:00,
2013-02-16 16:13:00,42.7,38.8,29.74,NNW,332,29.0,36.0,86,0.03,,---,0.03,VWS V14.01,2013-02-16 21:13:00,
2013-02-16 16:18:00,42.1,38.8,29.74,North,5,24.0,36.0,88,0.03,,---,0.03,VWS V14.01,2013-02-16 21:18:00,
2013-02-16 16:23:00,41.8,38.8,29.75,NNW,337,29.0,36.0,89,0.03,,---,0.03,VWS V14.01,2013-02-16 21:23:00,
2013-02-16 16:28:00,41.2,38.2,29.75,NNW,346,30.0,32.0,89,0.03,,---,0.03,VWS V14.01,2013-02-16 21:28:00,
2013-02-16 16:33:00,40.7,38.0,29.76,North,350,32.0,32.0,90,0.04,,---,0.04,VWS V14.01,2013-02-16 21:33:00,
2013-02-16 16:38:00,40.3,37.6,29.77,NNW,344,24.0,35.0,90,0.04,,---,0.04,VWS V14.01,2013-02-16 21:38:00,
2013-02-16 16:43:00,39.7,37.3,29.76,NNW,344,31.0,35.0,91,0.05,,---,0.05,VWS V14.01,2013-02-16 21:43:00,
2013-02-16 16:48:00,39.1,36.7,29.76,NNW,331,24.0,35.0,91,0.05,,---,0.05,VWS V14.01,2013-02-16 21:48:00,
2013-02-16 16:53:00,38.7,36.3,29.76,NNW,340,23.0,35.0,91,0.05,,---,0.05,VWS V14.01,2013-02-16 21:53:00,
2013-02-16 16:58:00,37.9,35.5,29.76,North,360,24.0,28.0,91,0.05,,---,0.06,VWS V14.01,2013-02-16 21:58:00,
2013-02-16 17:03:00,37.9,35.8,29.76,NNW,344,18.0,30.0,92,0.06,,---,0.07,VWS V14.01,2013-02-16 22:03:00,
2013-02-16 17:08:00,37.5,35.4,29.77,North,360,19.0,30.0,92,0.06,,---,0.07,VWS V14.01,2013-02-16 22:08:00,
2013-02-16 17:14:00,37.0,34.9,29.78,North,350,24.0,30.0,92,0.07,,---,0.08,VWS V14.01,2013-02-16 22:14:00,
2013-02-16 17:19:00,36.4,34.3,29.78,NW,322,23.0,30.0,92,0.08,,---,0.09,VWS V14.01,2013-02-16 22:19:00,
2013-02-16 17:24:00,35.7,33.9,29.78,North,355,17.0,30.0,93,0.08,,---,0.09,VWS V14.01,2013-02-16 22:24:00,
2013-02-16 17:29:00,35.5,33.7,29.78,North,355,16.0,17.0,93,0.07,,---,0.10,VWS V14.01,2013-02-16 22:29:00,
2013-02-16 17:34:00,35.3,33.8,29.78,NNW,333,13.0,21.0,94,0.08,,---,0.11,VWS V14.01,2013-02-16 22:34:00,
2013-02-16 17:39:00,35.1,33.3,29.79,NNW,344,16.0,22.0,93,0.08,,---,0.11,VWS V14.01,2013-02-16 22:39:00,
2013-02-16 17:44:00,34.9,33.3,29.79,North,350,18.0,23.0,94,0.09,,---,0.12,VWS V14.01,2013-02-16 22:44:00,
2013-02-16 17:49:00,34.8,33.2,29.79,North,351,11.0,23.0,94,0.09,,---,0.12,VWS V14.01,2013-02-16 22:49:00,
2013-02-16 17:54:00,35.0,33.7,29.78,NNW,346,16.0,23.0,95,0.09,,---,0.12,VWS V14.01,2013-02-16 22:54:00,
2013-02-16 17:59:00,34.7,33.2,29.79,North,355,17.0,20.0,94,0.08,,---,0.13,VWS V14.01,2013-02-16 22:59:00,
2013-02-16 18:04:00,34.6,33.0,29.79,NNW,347,16.0,21.0,94,0.08,,---,0.13,VWS V14.01,2013-02-16 23:04:00,
2013-02-16 18:09:00,34.7,33.4,29.79,NNW,346,18.0,23.0,95,0.08,,---,0.13,VWS V14.01,2013-02-16 23:09:00,
2013-02-16 18:14:00,34.8,33.5,29.79,NNW,346,15.0,23.0,95,0.08,,---,0.13,VWS V14.01,2013-02-16 23:14:00,
2013-02-16 18:19:00,34.8,33.5,29.79,North,355,17.0,23.0,95,0.08,,---,0.13,VWS V14.01,2013-02-16 23:19:00,
2013-02-16 18:24:00,34.8,33.5,29.79,North,355,15.0,23.0,95,0.09,,---,0.14,VWS V14.01,2013-02-16 23:24:00,
2013-02-16 18:30:00,34.8,33.5,29.80,NNW,342,15.0,19.0,95,0.04,,---,0.14,VWS V14.01,2013-02-16 23:30:00,
2013-02-16 18:35:00,35.0,33.7,29.80,NNW,347,14.0,20.0,95,0.04,,---,0.14,VWS V14.01,2013-02-16 23:35:00,
2013-02-16 18:40:00,34.8,33.5,29.80,North,5,13.0,20.0,95,0.04,,---,0.14,VWS V14.01,2013-02-16 23:40:00,
2013-02-16 18:45:00,35.0,33.7,29.80,North,5,14.0,20.0,95,0.04,,---,0.14,VWS V14.01,2013-02-16 23:45:00,
2013-02-16 18:50:00,34.8,33.5,29.78,North,11,11.0,20.0,95,0.04,,---,0.14,VWS V14.01,2013-02-16 23:50:00,
2013-02-16 18:55:00,34.8,33.5,29.78,NNE,16,11.0,20.0,95,0.05,,---,0.15,VWS V14.01,2013-02-16 23:55:00,
2013-02-16 19:00:00,35.1,33.8,29.77,NNE,25,7.0,16.0,95,0.02,,---,0.15,VWS V14.01,2013-02-17 00:00:00,
2013-02-16 19:05:00,35.0,33.7,29.77,NE,35,19.0,19.0,95,0.02,,---,0.15,VWS V14.01,2013-02-17 00:05:00,
2013-02-16 19:10:00,35.1,33.8,29.76,NE,43,15.0,19.0,95,0.02,,---,0.15,VWS V14.01,2013-02-17 00:10:00,
2013-02-16 19:15:00,35.2,33.9,29.76,ENE,63,10.0,19.0,95,0.02,,---,0.15,VWS V14.01,2013-02-17 00:15:00,
2013-02-16 19:20:00,35.0,33.7,29.78,North,5,13.0,19.0,95,0.02,,---,0.15,VWS V14.01,2013-02-17 00:20:00,
2013-02-16 19:25:00,35.1,33.8,29.79,North,360,13.0,19.0,95,0.02,,---,0.15,VWS V14.01,2013-02-17 00:25:00,
2013-02-16 19:30:00,35.1,33.8,29.80,NNW,340,12.0,15.0,95,0.01,,---,0.15,VWS V14.01,2013-02-17 00:30:00,
2013-02-16 19:35:00,35.3,34.0,29.80,North,355,11.0,17.0,95,0.01,,---,0.15,VWS V14.01,2013-02-17 00:35:00,
2013-02-16 19:40:00,35.3,33.8,29.80,NNW,344,14.0,20.0,94,0.01,,---,0.15,VWS V14.01,2013-02-17 00:40:00,
2013-02-16 19:45:00,35.3,34.0,29.82,NNW,332,18.0,21.0,95,0.01,,---,0.15,VWS V14.01,2013-02-17 00:45:00,
2013-02-16 19:50:00,35.3,34.0,29.81,WNW,302,15.0,21.0,95,0.01,,---,0.15,VWS V14.01,2013-02-17 00:50:00,
2013-02-16 19:55:00,35.4,34.1,29.82,NW,311,15.0,21.0,95,0.01,,---,0.15,VWS V14.01,2013-02-17 00:55:00,
2013-02-16 20:00:00,35.2,33.7,29.83,NNW,328,19.0,21.0,94,0.00,,---,0.15,VWS V14.01,2013-02-17 01:00:00,
2013-02-16 20:05:00,35.2,33.9,29.83,NNW,330,18.0,22.0,95,0.00,,---,0.15,VWS V14.01,2013-02-17 01:05:00,
2013-02-16 20:10:00,35.3,34.0,29.83,NW,322,12.0,22.0,95,0.00,,---,0.15,VWS V14.01,2013-02-17 01:10:00,
2013-02-16 20:15:00,35.6,34.3,29.83,WNW,300,13.0,24.0,95,0.00,,---,0.15,VWS V14.01,2013-02-17 01:15:00,
2013-02-16 20:20:00,35.6,34.3,29.83,NNW,335,21.0,24.0,95,0.00,,---,0.15,VWS V14.01,2013-02-17 01:20:00,
2013-02-16 20:25:00,35.4,34.1,29.83,NNW,332,15.0,24.0,95,0.00,,---,0.15,VWS V14.01,2013-02-17 01:25:00,
2013-02-16 20:31:00,35.6,34.3,29.83,North,351,16.0,21.0,95,0.00,,---,0.15,VWS V14.01,2013-02-17 01:31:00,
2013-02-16 20:36:00,35.9,34.6,29.83,NW,322,22.0,22.0,95,0.00,,---,0.15,VWS V14.01,2013-02-17 01:36:00,
2013-02-16 20:41:00,36.0,34.7,29.83,NNW,327,15.0,23.0,95,0.00,,---,0.15,VWS V14.01,2013-02-17 01:41:00,
2013-02-16 20:46:00,36.1,34.8,29.84,NW,325,15.0,23.0,95,0.00,,---,0.15,VWS V14.01,2013-02-17 01:46:00,
2013-02-16 20:51:00,36.0,34.7,29.84,NNW,335,17.0,23.0,95,0.00,,---,0.15,VWS V14.01,2013-02-17 01:51:00,
2013-02-16 20:56:00,36.0,34.4,29.84,NNW,341,14.0,23.0,94,0.00,,---,0.15,VWS V14.01,2013-02-17 01:56:00,
2013-02-16 21:01:00,36.0,34.4,29.84,NNW,347,19.0,19.0,94,0.00,,---,0.15,VWS V14.01,2013-02-17 02:01:00,
2013-02-16 21:06:00,36.3,34.7,29.84,North,355,15.0,20.0,94,0.00,,---,0.15,VWS V14.01,2013-02-17 02:06:00,
2013-02-16 21:11:00,36.3,34.7,29.84,NNW,338,13.0,20.0,94,0.00,,---,0.15,VWS V14.01,2013-02-17 02:11:00,
2013-02-16 21:16:00,36.3,34.7,29.84,NNW,331,13.0,20.0,94,0.00,,---,0.15,VWS V14.01,2013-02-17 02:16:00,
2013-02-16 21:21:00,36.2,34.6,29.84,NNW,347,13.0,20.0,94,0.00,,---,0.15,VWS V14.01,2013-02-17 02:21:00,
2013-02-16 21:26:00,36.4,34.8,29.85,NNW,339,14.0,20.0,94,0.00,,---,0.15,VWS V14.01,2013-02-17 02:26:00,
2013-02-16 21:31:00,36.4,34.8,29.85,North,350,13.0,17.0,94,0.00,,---,0.15,VWS V14.01,2013-02-17 02:31:00,
2013-02-16 21:36:00,36.5,34.9,29.85,NW,325,9.0,17.0,94,0.00,,---,0.15,VWS V14.01,2013-02-17 02:36:00,
2013-02-16 21:41:00,36.5,34.9,29.85,NNW,340,15.0,17.0,94,0.00,,---,0.15,VWS V14.01,2013-02-17 02:41:00,
2013-02-16 21:46:00,36.4,34.8,29.85,NW,313,11.0,17.0,94,0.00,,---,0.15,VWS V14.01,2013-02-17 02:46:00,
2013-02-16 21:51:00,36.4,34.8,29.85,NNW,335,13.0,17.0,94,0.00,,---,0.15,VWS V14.01,2013-02-17 02:51:00,
2013-02-16 21:56:00,36.4,34.8,29.85,NNW,347,11.0,17.0,94,0.00,,---,0.15,VWS V14.01,2013-02-17 02:56:00,
2013-02-16 22:01:00,36.5,34.9,29.85,NNW,339,14.0,16.0,94,0.00,,---,0.15,VWS V14.01,2013-02-17 03:01:00,
2013-02-16 22:06:00,36.5,34.9,29.85,NW,324,14.0,17.0,94,0.00,,---,0.15,VWS V14.01,2013-02-17 03:06:00,
2013-02-16 22:11:00,36.6,35.0,29.85,NW,323,9.0,18.0,94,0.00,,---,0.15,VWS V14.01,2013-02-17 03:11:00,
2013-02-16 22:16:00,36.8,35.2,29.86,NNW,329,14.0,18.0,94,0.00,,---,0.15,VWS V14.01,2013-02-17 03:16:00,
2013-02-16 22:21:00,36.8,35.2,29.86,NW,316,13.0,18.0,94,0.00,,---,0.15,VWS V14.01,2013-02-17 03:21:00,
2013-02-16 22:26:00,36.8,35.2,29.86,NNW,346,10.0,18.0,94,0.00,,---,0.15,VWS V14.01,2013-02-17 03:26:00,
2013-02-16 22:31:00,36.9,35.3,29.86,WNW,300,12.0,12.0,94,0.00,,---,0.15,VWS V14.01,2013-02-17 03:31:00,
2013-02-16 22:36:00,36.7,35.1,29.86,NW,322,12.0,14.0,94,0.00,,---,0.15,VWS V14.01,2013-02-17 03:36:00,
2013-02-16 22:41:00,36.7,35.1,29.86,NNW,327,12.0,16.0,94,0.00,,---,0.15,VWS V14.01,2013-02-17 03:41:00,
2013-02-16 22:46:00,36.7,35.1,29.86,NNW,345,11.0,16.0,94,0.00,,---,0.15,VWS V14.01,2013-02-17 03:46:00,
2013-02-16 22:52:00,36.9,35.3,29.86,NNW,329,15.0,17.0,94,0.00,,---,0.15,VWS V14.01,2013-02-17 03:52:00,
2013-02-16 22:57:00,36.8,35.2,29.86,NNW,336,12.0,18.0,94,0.00,,---,0.15,VWS V14.01,2013-02-17 03:57:00,
2013-02-16 23:02:00,36.8,35.2,29.86,NW,326,16.0,18.0,94,0.00,,---,0.15,VWS V14.01,2013-02-17 04:02:00,
2013-02-16 23:07:00,36.4,34.6,29.86,NW,316,15.0,20.0,93,0.00,,---,0.15,VWS V14.01,2013-02-17 04:07:00,
2013-02-16 23:12:00,36.6,34.8,29.86,North,349,13.0,23.0,93,0.00,,---,0.15,VWS V14.01,2013-02-17 04:12:00,
2013-02-16 23:17:00,36.4,34.8,29.87,NNW,337,18.0,23.0,94,0.00,,---,0.15,VWS V14.01,2013-02-17 04:17:00,
2013-02-16 23:22:00,36.5,34.9,29.87,NNW,329,15.0,23.0,94,0.00,,---,0.15,VWS V14.01,2013-02-17 04:22:00,
2013-02-16 23:27:00,36.4,34.8,29.87,NNW,339,17.0,23.0,94,0.00,,---,0.15,VWS V14.01,2013-02-17 04:27:00,
2013-02-16 23:32:00,36.2,34.6,29.87,NNW,340,12.0,20.0,94,0.00,,---,0.15,VWS V14.01,2013-02-17 04:32:00,
2013-02-16 23:37:00,36.2,34.4,29.87,NNW,327,15.0,20.0,93,0.00,,---,0.15,VWS V14.01,2013-02-17 04:37:00,
2013-02-16 23:42:00,36.4,34.8,29.87,NW,310,13.0,20.0,94,0.00,,---,0.15,VWS V14.01,2013-02-17 04:42:00,
2013-02-16 23:47:00,36.4,34.8,29.87,NNW,332,15.0,20.0,94,0.00,,---,0.15,VWS V14.01,2013-02-17 04:47:00,
2013-02-16 23:52:00,36.3,34.7,29.88,NW,323,16.0,22.0,94,0.00,,---,0.15,VWS V14.01,2013-02-17 04:52:00,
2013-02-16 23:57:00,36.3,34.7,29.87,NNW,335,16.0,22.0,94,0.00,,---,0.15,VWS V14.01,2013-02-17 04:57:00,